{"data":{"norad_id":62305,"intl_designator":"2024-239E","name":"STARLINK-32649","alt_names":[],"object_type":"PAYLOAD","status":"ACTIVE","operator":null,"country":"US","launch_date":"2024-12-13","launch_site_code":"AFWTR","launch_vehicle":null,"mission":null,"orbit_class":"UNKNOWN","rcs_meters":null,"size_class":null,"mass_kg":null,"dimensions":null,"purposes":["comms"],"wikipedia_slug":null,"has_3d_model":false,"image_url":null,"decayed_at":null,"tle_current":{"epoch":"2026-05-25T03:16:54.645312Z","epoch_age_seconds":66540,"freshness":"FRESH","line1":"1 62305U 24239E   26145.13674358  .00007946  00000+0  28009-3 0  9998","line2":"2 62305  53.1591 198.4556 0001269  83.7688 276.3457 15.30201860 81096","mean_motion":15.3020186,"eccentricity":0.0001269,"inclination_deg":53.1591,"raan_deg":198.4556,"arg_perigee_deg":83.7688,"mean_anomaly_deg":276.3457,"bstar":0.00028009,"rev_number":8109,"period_min":94.105231318958,"perigee_km":474.33982612736,"apogee_km":476.07920547307,"semimajor_km":6853.3465158002,"source":"CELESTRAK","updated_at":"2026-05-25T13:38:19.647832Z"}}}